User: anonymous   Login
Location: Cosy Dell
(34.2789°N, 117.4537°W)
Time: 22:21:45
(UTC+00:00)
Language:

SL-16 R/B - Orbit

View from above orbital plane
View from above orbital plane
View from above satellite
View from above satellite

Ground track
Ground track

The orbit data is extracted from the following two-line orbital elements,

1 28353U 04021B   20272.47383418 -.00000338 +00000-0 -15227-3 0  9995
2 28353 070.9976 083.2612 0005564 204.2650 155.8211 14.14233785841703
Epoch (UTC): 28 September 2020 11:22:19
Eccentricity: 0.0005564
inclination: 70.9976°
perigee height: 841 km
apogee height: 849 km
right ascension of ascending node: 83.2612°
argument of perigee: 204.2650°
revolutions per day: 14.14233785
mean anomaly at epoch: 155.8211°
orbit number at epoch: 84170

The dashed part of the orbit path shows where the satellite is in the earth's shadow,  

DLR